Regional Weather Roundup
Issued by NWS

Home | Current Version | Previous Version | Graphics & Text | Print | Product List | Glossary On
Versions: 1 2 3 4 5 6 7 8 9 10 11 12 13 14 15 16 17 18 19 20 21 22 23 24 25 26 27 28 29 30 31 32 33 34 35 36 37 38 39 40 41 42 43 44 45 46 47 48 49 50
000
ASUS43 KLMK 221910
RWRKY
KENTUCKY REGIONAL WEATHER ROUNDUP
NATIONAL WEATHER SERVICE LOUISVILLE KY
300 PM EDT MON MAY 22 2017

NOTE "FAIR" INDICATES FEW OR NO CLOUDS BELOW 12,000 FEET
WITH NO SIGNIFICANT WEATHER AND/OR OBSTRUCTIONS TO VISIBILITY.

KYZ001>023-026-027-061>063-070>075-222000-
WESTERN AND SOUTH CENTRAL KENTUCKY

CITY           SKY/WX    TMP DP  RH WIND       PRES   REMARKS
PADUCAH        CLOUDY    72  47  40 SE7       30.06F
HENDERSON      CLOUDY    70  49  47 CALM      30.08F
OWENSBORO      CLOUDY    70  50  49 VRB3      30.09F
HOPKINSVILLE   MOSUNNY   70  46  42 SE6       30.07F
BOWLING GREEN  CLOUDY    70  50  49 CALM      30.09F
GLASGOW        PTSUNNY   70  47  43 E6        30.10F
$$

KYZ024-025-028>034-038-045-046-053-222000-
NORTH CENTRAL KENTUCKY

CITY           SKY/WX    TMP DP  RH WIND       PRES   REMARKS
LOUISVILLE/SDF CLOUDY    69  46  43 CALM      30.10F
LOUISVILLE/LOU CLOUDY    68  46  45 NW6       30.10F
FORT KNOX      LGT RAIN  66  48  52 CALM      30.09F
$$

KYZ035>037-039>044-047>052-055>060-089>105-222000-
NORTHEAST KENTUCKY

CITY           SKY/WX    TMP DP  RH WIND       PRES   REMARKS
LEXINGTON      CLOUDY    65  45  48 NW5       30.11F
COVINGTON      CLOUDY    64  41  42 CALM      30.11F
FRANKFORT      CLOUDY    69  44  40 VRB6      30.10F
$$

KYZ054-064>069-076>088-106>120-222000-
SOUTHEAST KENTUCKY

CITY           SKY/WX    TMP DP  RH WIND       PRES   REMARKS
JACKSON        CLOUDY    66  50  56 NW5       30.10F
LONDON         PTSUNNY   68  48  48 VRB5      30.10F
SOMERSET       CLOUDY    64  46  52 E3        30.11F
MIDDLESBORO    PTSUNNY   72  57  59 NE6       30.07F
MONTICELLO     MOCLDY    68  51  54 N10G18    30.11F
$$





USA.gov is the U.S. government's official web portal to all federal, state and local government web resources and services.